• MPC Preparation (Info)

  • MPEC 2014-H50 : 2014 HV46

    The following Minor Planet Electronic Circular may be linked-to from your own Web pages, but must not otherwise be redistributed electronically.

    A form allowing access to any MPEC is at the bottom of this page.


    Read MPEC 2014-H49 Read MPEC 2014-H51


    M.P.E.C. 2014-H50                                Issued 2014 Apr. 26, 20:20 UT
    
         The Minor Planet Electronic Circulars contain information on unusual
             minor planets and routine data on comets.  They are published
       on behalf of Commission 20 of the International Astronomical Union by the
              Minor Planet Center, Smithsonian Astrophysical Observatory,
                              Cambridge, MA 02138, U.S.A.
    
                 Prepared using the Tamkin Foundation Computer Network
    
                                  MPC@CFA.HARVARD.EDU
                URL https://www.minorplanetcenter.net/    ISSN 1523-6714
    
                                       2014 HV46
    
    Observations:
         K14H46V*5C2014 04 23.27488 14 25 53.26 -07 27 06.6          22.6 VoEH050W84
         K14H46V 5C2014 04 23.27805 14 25 53.38 -07 27 06.9          22.6 VoEH050W84
         K14H46V 5C2014 04 23.28128 14 25 53.49 -07 27 07.1          22.6 VoEH050W84
         K14H46V 5C2014 04 23.28445 14 25 53.61 -07 27 07.3          22.6 VoEH050W84
         K14H46V 5C2014 04 23.28767 14 25 53.72 -07 27 07.5          22.6 VoEH050W84
         K14H46V 5C2014 04 24.29660 14 26 39.97 -07 28 31.3          22.7 VoEH050W84
         K14H46V 5C2014 04 24.29978 14 26 40.08 -07 28 31.5                oEH050W84
         K14H46V 5C2014 04 24.30293 14 26 40.19 -07 28 31.7                oEH050W84
         K14H46V 5C2014 04 24.30607 14 26 40.31 -07 28 32.0                oEH050W84
         K14H46V 5C2014 04 25.31325 14 27 26.19 -07 30 06.6          22.6 VoEH050W84
         K14H46V 5C2014 04 25.31641 14 27 26.30 -07 30 06.9                oEH050W84
         K14H46V 5C2014 04 25.31957 14 27 26.42 -07 30 07.2                oEH050W84
         K14H46V 5C2014 04 25.32271 14 27 26.54 -07 30 07.4                oEH050W84
    
    Observer details:
    W84 Cerro Tololo-DECam.  Measurer F. Valdes.  4.0-m CTIO reflector.
    
    Orbital elements:
    2014 HV46                                                Earth MOID = 0.2677 AU
    Epoch 2014 May 23.0 TT = JDT 2456800.5                  MPC
    M   5.28130              (2000.0)            P               Q
    n   0.31845404     Peri.   93.17809     -0.71588764     +0.69795629
    a   2.1237572      Node   131.08624     -0.65020728     -0.65648807
    e   0.3996948      Incl.    1.44630     -0.25443149     -0.28614757
    P   3.09           H   24.4           G   0.15           U   7
    Residuals in seconds of arc
    140423 W84  0.0   0.0     140424 W84  0.1+  0.1-    140425 W84  0.0   0.0
    140423 W84  0.1+  0.1-    140424 W84  0.0   0.0     140425 W84  0.1+  0.1-
    140423 W84  0.0   0.0     140424 W84  0.0   0.0     140425 W84  0.1+  0.0
    140423 W84  0.1+  0.0     140424 W84  0.1+  0.0
    140423 W84  0.0   0.0     140425 W84  0.1+  0.0
    
    Ephemeris:
    2014 HV46                a,e,i = 2.12, 0.40, 1                   q = 1.2749
    Date    TT    R. A. (2000) Decl.     Delta      r     Elong.  Phase     V
    2014 03 27    14 00 43.8 -07 16 39   0.3592  1.3319   155.0    18.5    23.7
    ...
    2014 04 11    14 15 47.4 -07 20 32   0.3036  1.2980   165.4    11.2    23.1
    ...
    2014 04 19    14 22 32.7 -07 23 09   0.2847  1.2858   170.4     7.5    22.8
    ...
    2014 04 25    14 27 13.0 -07 29 49   0.2754  1.2796   172.9     5.6    22.6
    2014 04 26    14 27 58.5 -07 31 31   0.2742  1.2788   173.1     5.4    22.6
    2014 04 27    14 28 43.8 -07 33 25   0.2732  1.2781   173.2     5.4    22.6
    ...
    2014 05 03    14 33 16.2 -07 49 32   0.2693  1.2753   172.2     6.2    22.6
    ...
    2014 05 11    14 39 41.9 -08 25 33   0.2704  1.2757   168.1     9.4    22.7
    ...
    2014 05 26    14 54 12.5 -10 18 01   0.2911  1.2887   158.8    16.5    23.2
    
    A. U. Tomatic                (C) Copyright 2014 MPC           M.P.E.C. 2014-H50
    

    Read MPEC 2014-H49 Read MPEC 2014-H51


    MPEC number:

    Enter an MPEC number in one of the following forms:

    • 1997-B01 (the full form)
    • J97B01 (the packed version of the full form)
    • B01 (the abbreviated form)